EW5500 Weather Reports


time (UTC)temp
C
wind
direction
speed
KPH
gust
KPH
rain 1hr
cm
rain 24hr
cm
rain mn
cm
humidity
%
barometer
mb
20260507141556 11 265 4.8 11.3 0.00 0.00 0.00 55 1008.1
20260507140052 10 182 3.2 9.7 0.00 0.00 0.00 61 1008.1
20260507134550 9 231 1.6 8.0 0.00 0.00 0.00 65 1008.0
20260507133101 7 172 0.0 4.8 0.00 0.00 0.00 70 1008.1
20260507131552 7 248 0.0 1.6 0.00 0.00 0.00 70 1008.1
20260507130104 7 242 1.6 6.4 0.00 0.00 0.00 67 1008.1
20260507124547 7 245 3.2 4.8 0.00 0.00 0.00 70 1008.0
20260507123045 7 231 0.0 3.2 0.00 0.00 0.00 70 1008.1
20260507121551 7 232 0.0 3.2 0.00 0.00 0.00 69 1008.0
20260507120053 7 248 1.6 4.8 0.00 0.00 0.00 69 1008.2
20260507114614 7 205 0.0 9.7 0.00 0.00 0.00 65 1007.9
20260507113038 8 237 3.2 6.4 0.00 0.00 0.00 60 1008.0
20260507111537 8 261 0.0 4.8 0.00 0.00 0.00 64 1008.0
20260507110036 8 243 0.0 3.2 0.00 0.00 0.00 61 1007.8
20260507104535 7 151 1.6 4.8 0.00 0.00 0.00 63 1007.4
20260507103031 8 181 0.0 1.6 0.00 0.00 0.00 61 1007.8
20260507101530 9 255 0.0 3.2 0.00 0.00 0.00 47 1008.2
20260507100033 8 17 0.0 1.6 0.00 0.00 0.00 46 1008.0
20260507094528 8 17 0.0 3.2 0.00 0.00 0.00 48 1007.8
20260507093026 8 17 0.0 3.2 0.00 0.00 0.00 49 1007.8
20260507091529 8 17 0.0 3.2 0.00 0.00 0.00 47 1007.5
20260507090023 8 239 1.6 3.2 0.00 0.00 0.00 44 1007.6
20260507084519 8 248 0.0 4.8 0.00 0.00 0.00 46 1007.5
20260507083016 9 252 0.0 1.6 0.00 0.00 0.00 45 1007.8
20260507081513 9 344 0.0 0.0 0.00 0.00 0.00 43 1007.2
20260507080010 9 344 0.0 3.2 0.00 0.00 0.00 42 1007.1
20260507074507 9 248 1.6 3.2 0.00 0.00 0.00 41 1006.9
20260507073003 10 248 1.6 4.8 0.00 0.00 0.00 39 1006.9
20260507071502 10 84 0.0 1.6 0.00 0.00 0.00 37 1006.5
20260507070002 10 84 0.0 1.6 0.00 0.00 0.00 37 1006.4
20260507064603 10 84 0.0 3.2 0.00 0.00 0.00 36 1006.2
20260507063105 10 89 3.2 8.0 0.00 0.00 0.00 35 1006.6
20260507061555 10 75 0.0 3.2 0.00 0.00 0.00 33 1006.7
20260507060056 10 75 1.6 4.8 0.00 0.00 0.00 33 1006.3
20260507054552 10 75 3.2 12.9 0.00 0.00 0.00 34 1006.5
20260507053050 10 71 8.0 14.5 0.00 0.00 0.00 33 1006.6
20260507051550 11 9 4.8 16.1 0.00 0.00 0.00 35 1006.7
20260507050049 11 105 6.4 14.5 0.00 0.00 0.00 36 1006.6
20260507044549 11 98 3.2 12.9 0.00 0.00 0.00 38 1006.9
20260507043048 11 60 3.2 11.3 0.00 0.00 0.00 31 1007.0
20260507041551 11 84 4.8 12.9 0.00 0.00 0.00 31 1007.0
20260507040053 12 94 3.2 8.0 0.00 0.00 0.00 31 1006.8
20260507034551 12 91 3.2 4.8 0.00 0.00 0.00 30 1006.9
20260507033051 12 98 6.4 9.7 0.00 0.00 0.00 29 1006.8
20260507031545 12 116 6.4 24.1 0.00 0.00 0.00 29 1006.3
20260507030045 13 79 11.3 24.1 0.00 0.00 0.00 28 1006.0
20260507024546 13 95 14.5 25.7 0.00 0.00 0.00 26 1005.2
20260507023048 14 82 12.9 22.5 0.00 0.00 0.00 25 1005.3
20260507021545 15 79 11.3 22.5 0.00 0.00 0.00 24 1005.6
20260507020104 15 70 11.3 27.4 0.00 0.00 0.00 24 1005.8
20260507014544 16 50 12.9 22.5 0.00 0.00 0.00 24 1005.5
20260507013050 16 75 11.3 24.1 0.00 0.00 0.00 23 1005.3
20260507011540 17 74 12.9 20.9 0.00 0.00 0.00 23 1005.2
20260507010039 18 25 11.3 19.3 0.00 0.00 0.00 22 1005.4
20260507004547 18 60 12.9 22.5 0.00 0.00 0.00 23 1005.5
20260507003042 18 93 12.9 22.5 0.00 0.00 0.00 22 1005.6
20260507001542 18 71 8.0 14.5 0.00 0.00 0.00 23 1005.6
20260507000035 18 58 6.4 12.9 0.00 0.00 0.00 23 1005.7
20260506234537 19 66 6.4 16.1 0.00 0.00 0.00 22 1005.7
20260506233031 19 61 4.8 12.9 0.00 0.00 0.00 22 1005.7
20260506231529 20 94 4.8 12.9 0.00 0.00 0.00 22 1005.9
20260506230027 20 330 0.0 11.3 0.00 0.00 0.00 20 1006.1
20260506224525 20 79 1.6 6.4 0.00 0.00 0.00 20 1006.4
20260506223021 20 140 3.2 11.3 0.00 0.00 0.00 21 1006.7
20260506221518 19 125 1.6 6.4 0.00 0.00 0.00 22 1006.8
20260506220016 20 243 3.2 8.0 0.00 0.00 0.00 20 1007.1
20260506214522 18 122 4.8 9.7 0.00 0.00 0.00 23 1007.5
20260506213009 18 122 4.8 14.5 0.00 0.00 0.00 21 1007.8
20260506211506 18 246 8.0 17.7 0.00 0.00 0.00 21 1008.1
20260506210004 18 245 3.2 12.9 0.00 0.00 0.00 22 1008.5
20260506204502 18 155 3.2 16.1 0.00 0.00 0.00 22 1008.7
20260506203100 18 143 4.8 11.3 0.00 0.00 0.00 22 1008.9
20260506201557 17 75 1.6 8.0 0.00 0.00 0.00 21 1009.1
20260506200053 17 149 3.2 11.3 0.00 0.00 0.00 24 1009.4
20260506194550 17 137 4.8 14.5 0.00 0.00 0.00 24 1009.8
20260506193046 16 144 3.2 12.9 0.00 0.00 0.00 25 1010.1
20260506191544 16 230 4.8 14.5 0.00 0.00 0.00 24 1010.4
20260506190040 16 125 4.8 12.9 0.00 0.00 0.00 25 1010.8
20260506184547 15 184 4.8 19.3 0.00 0.00 0.00 26 1011.1
20260506183049 15 140 4.8 19.3 0.00 0.00 0.00 26 1011.4
20260506181546 15 232 3.2 9.7 0.00 0.00 0.00 26 1011.5
20260506180032 13 257 3.2 16.1 0.00 0.00 0.00 26 1011.9
20260506174526 13 118 3.2 11.3 0.00 0.00 0.00 26 1012.2
20260506173021 13 228 4.8 8.0 0.00 0.00 0.00 27 1012.5
20260506171518 12 259 6.4 14.5 0.00 0.00 0.00 27 1012.9
20260506170016 12 176 4.8 12.9 0.00 0.00 0.00 28 1013.0
20260506164512 12 265 4.8 17.7 0.00 0.00 0.00 30 1013.2
20260506163008 12 265 3.2 17.7 0.00 0.00 0.00 31 1013.5
20260506161505 11 211 6.4 16.1 0.00 0.00 0.00 33 1013.7
20260506160004 11 324 4.8 14.5 0.00 0.00 0.00 33 1014.0
20260506154604 11 115 4.8 24.1 0.00 0.00 0.00 33 1014.2
20260506154502 11 252 6.4 24.1 0.00 0.00 0.00 34 1014.3
20260506153113 10 98 3.2 12.9 0.00 0.00 0.00 34 1014.4
20260506151552 10 149 4.8 12.9 0.00 0.00 0.00 35 1014.7
20260506150058 9 191 3.2 9.7 0.00 0.00 0.00 36 1015.0
20260506144554 8 159 0.0 8.0 0.00 0.00 0.00 44 1015.2
20260506143039 6 149 1.6 9.7 0.00 0.00 0.00 48 1015.5